Location: Gad�tanya
(48.0500°N, 20.8500°E)
Time: 11:22:40
(UTC+00:00)

Cosmos 1943 Rocket - Pass Details

Date: 05 July 2020
Orbit: 811 x 845 km, 71.0° (Epoch: 14 August)

Event Time Altitude Azimuth Distance (km) Brightness Sun altitude
Rises 21:10:19 0° 337° (NNW) 3,415 7.2 -16.4°
Reaches altitude 10° 21:13:13 10° 350° (N) 2,477 5.9 -16.6°
Maximum altitude 21:17:52 25° 45° (NE) 1,644 4.0 -16.8°
Drops below altitude 10° 21:22:29 10° 100° (E) 2,462 4.3 -17.1°
Enters shadow 21:23:12 - 104° (ESE) 2,679 4.5 -17.1°
